sat.trackr.live / text

‹ back to catalog

STARLINK-32278

NORAD 60356 · 2024-138B

PAYLOAD ACTIVE UNKNOWN

§ Identity

Operator
Country
US
Launch date
2024-08-04
Launch site
AFWTR
Launch vehicle
Mass (kg)
RCS (m²)

Purposes: comms

External: N2YO · Heavens-Above · Gunter

§ Orbital elements

Epoch: 2026-05-25T04:17:28.594752Z

Period
94.11 min
Inclination
53.1615°
Eccentricity
0.0001117
Mean motion
15.30191377 rev/d
Perigee alt
474.5 km
Apogee alt
476.0 km
Semi-major
6,853.4 km
B*
1.2240e-5
RAAN
314.6505°
Arg perigee
99.3041°
Mean anomaly
260.8086°
Rev number
10,233

§ Raw data

STARLINK-322781 60356U 24138B   26145.17880318  .00000003  00000+0  12240-4 0  99972 60356  53.1615 314.6505 0001117  99.3041 260.8086 15.30191377102339

JSON: /api/v1/satellites/60356 · /tle

For live sub-satellite position, see the globe view (requires WebGL).

§ Visibility from observer

Set your observer location to see the next 7 days of passes ≥ 10°. The values pass through the URL so the page stays shareable.

No JS? Fill the form by hand. The geolocation button needs JavaScript.